Date,Average Flux,STDV,SE,Fertilizer,Rain/Irrigation [mm],Rain,Irrigation 
17-Nov-09,,,,100,0,0,
18-Nov-09,,,,,0,0,
19-Nov-09,,,,,3,3,
20-Nov-09,,,,,0,0,
21-Nov-09,,,,,34,0,34
22-Nov-09,91.77,39.87,23.02,,0,0,
23-Nov-09,,,,,0,0,
24-Nov-09,59.31,23.72,13.70,,0,0,
25-Nov-09,,,,,0,0,
26-Nov-09,26.92,7.37,4.25,,0,0,
27-Nov-09,3.79,2.37,1.37,,26,0,26
28-Nov-09,,,,,0.8,0.8,
29-Nov-09,,,,,5.4,5.4,
30-Nov-09,,,,,0,0,
1-Dec-09,,,,,0,0,
2-Dec-09,,,,,3.4,3.4,
3-Dec-09,22.07,13.08,7.55,,8.2,8.2,
4-Dec-09,10.65,2.76,1.59,,19,0,19
5-Dec-09,5.72,0.11,0.07,,0,0,
6-Dec-09,4.02,0.45,0.26,,15,0,15
7-Dec-09,4.18,1.16,0.67,,0,0,
8-Dec-09,5.31,1.70,0.98,,15,0,15
9-Dec-09,5.54,0.66,0.38,,0,0,
10-Dec-09,7.55,2.17,1.25,,18,0,18
11-Dec-09,9.35,3.57,2.06,,0,0,
12-Dec-09,3.75,0.46,0.27,,0,0,
13-Dec-09,6.32,0.54,0.31,,18.4,18.4,
14-Dec-09,3.88,1.71,0.99,,0,0,
15-Dec-09,3.21,1.04,0.60,,0,0,
16-Dec-09,2.39,1.62,0.94,,0,0,
17-Dec-09,,,,,0,0,
18-Dec-09,0.66,0.62,0.36,,0,0,
19-Dec-09,1.89,0.53,0.31,,0.2,0.2,
20-Dec-09,2.88,0.16,0.09,,13.2,13.2,
21-Dec-09,5.04,0.51,0.30,,69.4,69.4,
22-Dec-09,4.02,1.53,0.88,,0,0,
23-Dec-09,3.11,0.54,0.31,,0,0,
24-Dec-09,2.15,0.85,0.49,,0.4,0.4,
25-Dec-09,1.83,0.74,0.43,,0,0,
26-Dec-09,2.25,1.33,0.77,,0,0,
27-Dec-09,1.73,0.70,0.40,,0.4,0.4,
28-Dec-09,2.34,0.36,0.21,,0,0,
29-Dec-09,2.45,0.98,0.57,,8.8,8.8,
30-Dec-09,1.57,0.92,0.53,,16.8,16.8,
31-Dec-09,2.04,0.39,0.23,,0,0,
1-Jan-10,2.54,0.51,0.29,,1.6,1.6,
2-Jan-10,2.34,0.56,0.33,,0.6,0.6,
3-Jan-10,2.18,0.39,0.22,,0.8,0.8,
4-Jan-10,0.93,1.09,0.63,,8,8,
5-Jan-10,2.01,0.76,0.44,,0,0,
6-Jan-10,2.94,1.35,0.78,,0,0,
7-Jan-10,1.60,0.71,0.41,,0,0,
8-Jan-10,2.46,1.15,0.66,,0,0,
9-Jan-10,2.92,1.37,0.79,,7.6,7.6,
10-Jan-10,4.83,2.95,1.70,,0,0,
11-Jan-10,4.37,1.86,1.08,,0,0,
12-Jan-10,2.60,1.67,0.96,,0,0,
13-Jan-10,9.09,7.33,4.23,,0,0,
14-Jan-10,0.67,0.70,0.40,,0,0,
15-Jan-10,1.33,1.40,0.81,,0,0,
16-Jan-10,1.08,1.56,0.90,,0,0,
17-Jan-10,0.24,0.06,0.03,,4,4,
18-Jan-10,4.66,7.29,4.21,,2.6,2.6,
19-Jan-10,0.10,0.22,0.13,,0,0,
20-Jan-10,5.79,4.83,2.79,50.00,20,0,20
21-Jan-10,2.06,0.50,0.29,,0,0,
22-Jan-10,1.79,2.86,1.65,,0,0,
23-Jan-10,2.40,1.21,0.70,,0,0,
24-Jan-10,4.16,2.20,1.27,,0,0,
25-Jan-10,3.20,1.02,0.59,,15,0,15
26-Jan-10,7.48,,,,0,0,
27-Jan-10,1.18,1.17,0.68,,0,0,
28-Jan-10,0.25,0.45,0.26,,0.4,0.4,
29-Jan-10,2.13,1.87,1.08,,15.6,15.6,
30-Jan-10,,,,,0.2,0.2,
31-Jan-10,,,,,0,0,
1-Feb-10,,,,,13.4,13.4,
2-Feb-10,0.21,0.34,0.20,,2,2,
3-Feb-10,0.33,0.24,0.14,,1,1,
4-Feb-10,0.75,0.43,0.25,,20.2,0.2,20
5-Feb-10,1.04,0.47,0.27,,1.6,1.6,
6-Feb-10,1.31,1.40,0.81,,0.2,0.2,
7-Feb-10,0.09,0.17,0.10,,1.8,1.8,
8-Feb-10,0.61,0.86,0.50,,0.6,0.6,
9-Feb-10,0.39,0.26,0.15,,1.6,1.6,
10-Feb-10,0.74,0.88,0.51,,1.8,1.8,
11-Feb-10,2.05,1.92,1.11,,0,0,
12-Feb-10,6.00,8.41,4.86,50.00,40,0,40
13-Feb-10,8.31,4.09,2.36,,0,0,
14-Feb-10,4.75,2.84,1.64,,0,0,
15-Feb-10,5.28,4.62,2.67,,0,0,
16-Feb-10,46.78,62.65,36.17,,73.4,73.4,
17-Feb-10,44.12,68.05,39.29,,2.6,2.6,
18-Feb-10,18.25,28.24,16.31,,0,0,
19-Feb-10,7.70,10.73,6.20,,0,0,
20-Feb-10,4.36,6.39,3.69,,0,0,
21-Feb-10,2.48,3.68,2.12,,0,0,
22-Feb-10,2.42,3.07,1.77,,0,0,
23-Feb-10,1.82,2.24,1.30,,0,0,
24-Feb-10,0.95,1.13,0.65,,0,0,
25-Feb-10,0.69,0.90,0.52,,0,0,
26-Feb-10,0.98,1.29,0.75,,0,0,
27-Feb-10,0.77,0.71,0.41,,0,0,
28-Feb-10,0.65,0.97,0.56,,0,0,
1-Mar-10,3.06,2.93,1.69,,9.6,9.6,
2-Mar-10,28.02,35.45,20.47,,71.6,71.6,
3-Mar-10,,,,,15.8,15.8,
4-Mar-10,,,,,0.6,0.6,
5-Mar-10,2.38,1.49,0.86,,0,0,
6-Mar-10,1.31,2.01,1.16,,32.8,32.8,
7-Mar-10,1.60,2.66,1.54,,5,5,
8-Mar-10,1.23,1.03,0.59,,8,8,
9-Mar-10,1.26,1.95,1.12,,0.2,0.2,
10-Mar-10,2.45,1.60,0.93,,0.2,0.2,
11-Mar-10,1.18,1.70,0.98,,0,0,
12-Mar-10,0.88,0.32,0.18,,0,0,
13-Mar-10,0.65,0.66,0.38,,0,0,
14-Mar-10,0.91,0.72,0.41,,0.4,0.4,
15-Mar-10,1.23,0.78,0.45,,0.6,0.6,
16-Mar-10,1.16,1.41,0.82,,0,0,
17-Mar-10,1.07,0.78,0.45,,0,0,
18-Mar-10,0.92,0.64,0.37,,0.2,0.2,
19-Mar-10,0.63,0.64,0.37,,0,0,
20-Mar-10,0.69,0.50,0.29,,0,0,
21-Mar-10,3.17,4.93,2.84,,0.2,0.2,
22-Mar-10,,,,,0,0,
23-Mar-10,,,,,0,0,
24-Mar-10,,,,,0.2,0.2,
25-Mar-10,,,,,0,0,
26-Mar-10,0.35,0.32,0.18,,0,0,
27-Mar-10,0.84,0.03,0.01,,0.2,0.2,
28-Mar-10,0.85,0.53,0.31,,0,0,
29-Mar-10,1.53,0.75,0.43,,0,0,
30-Mar-10,,,,,0,0,
31-Mar-10,,,,,0,0,
1-Apr-10,,,,,33.4,6.4,27
2-Apr-10,0.87,0.07,0.04,,0,0,
3-Apr-10,1.11,0.40,0.23,,0.2,0.2,
4-Apr-10,0.68,0.43,0.25,,0,0,
5-Apr-10,0.91,0.14,0.08,,1.2,1.2,
6-Apr-10,1.05,0.06,0.04,,0,0,
7-Apr-10,0.60,0.56,0.32,,0,0,
8-Apr-10,0.55,0.22,0.13,,0,0,
9-Apr-10,0.85,0.33,0.19,,0,0,
10-Apr-10,0.62,0.24,0.14,,0,0,
11-Apr-10,0.75,0.32,0.19,,0,0,
12-Apr-10,3.00,2.03,1.17,,0,0,
13-Apr-10,,,,,0.2,0.2,
14-Apr-10,,,,,26,0,26
15-Apr-10,0.51,0.82,0.48,,0,0,
16-Apr-10,1.70,0.31,0.18,,0,0,
17-Apr-10,0.67,0.33,0.19,,0,0,
18-Apr-10,0.48,0.09,0.05,,0,0,
19-Apr-10,1.01,0.29,0.17,,0,0,
20-Apr-10,0.60,0.18,0.10,,0,0,
21-Apr-10,0.66,0.48,0.27,,0,0,
22-Apr-10,1.66,0.44,0.25,,1.6,1.6,
23-Apr-10,0.64,0.39,0.23,,0.2,0.2,
24-Apr-10,0.87,0.36,0.21,,0,0,
25-Apr-10,0.59,0.44,0.25,,0,0,
26-Apr-10,0.57,0.35,0.20,,0,0,
27-Apr-10,1.02,0.47,0.27,,0,0,
28-Apr-10,0.96,1.05,0.60,,0,0,
29-Apr-10,0.69,0.29,0.17,,1.4,1.4,
30-Apr-10,1.54,0.92,0.53,,0,0,
01-May-10,0.68,0.74,0.43,,0,0,
02-May-10,0.54,0.30,0.18,,0,0,
03-May-10,0.47,0.29,0.17,,0.2,0.2,
04-May-10,1.61,0.27,0.16,,2.2,2.2,
05-May-10,0.47,0.29,0.17,,9.2,9.2,
06-May-10,0.88,0.37,0.21,,0.2,0.2,
07-May-10,0.07,0.30,0.18,,0,0,
08-May-10,0.47,0.53,0.31,,0,0,
09-May-10,1.09,0.22,0.13,,0,0,
10-May-10,0.75,0.48,0.28,,0,0,
11-May-10,0.82,0.38,0.22,,0,0,
12-May-10,0.48,0.54,0.31,,0.4,0.4,
13-May-10,0.75,0.16,0.09,,0,0,
14-May-10,0.33,0.57,0.33,,0,0,
15-May-10,0.22,0.29,0.17,,0,0,
16-May-10,0.97,0.31,0.18,,0,0,
17-May-10,0.72,0.64,0.37,,0,0,
18-May-10,,,,,0.4,0.4,
19-May-10,,,,,0,0,
20-May-10,,,,,0,0,
,,,,,,,
